Location: Newark
(48.3453°N, 0.5589°E)
Time: 00:42:12
(UTC+00:00)

Courier 1B Rocket - All Passes

Search period start: 16 December 2019 00:00
Search period end: 26 December 2019 00:00
Orbit: 921 x 1202 km, 28.2° (Epoch: 14 December)

Date Brightness Start Highest point End Pass type
(mag) Time Alt. Az. Time Alt. Az. Time Alt. Az.
16 Dec - 04:05:47 10° S 04:07:40 11° SSE 04:09:31 10° SSE visible
16 Dec - 05:56:33 10° SSW 05:59:48 14° S 06:02:59 10° SSE visible
17 Dec - 04:55:40 10° SSW 04:59:07 14° S 05:02:29 10° SSE visible
17 Dec - 06:48:59 10° SSW 06:51:13 12° SSW 06:53:24 10° S visible
18 Dec - 03:55:06 10° SSW 03:58:24 13° S 04:01:37 10° SE visible
18 Dec - 05:47:17 10° SW 05:50:34 13° S 05:53:45 10° SSE visible
19 Dec - 02:55:01 10° S 02:57:41 12° SSE 03:00:17 10° SE visible
19 Dec - 04:46:05 10° SSW 04:49:52 15° S 04:53:32 10° SSE visible
19 Dec - 06:41:52 10° SSW 06:41:56 10° SSW 06:42:00 10° SSW visible
20 Dec - 01:56:52 10° SSE 01:56:56 10° SSE 01:57:01 10° SSE night (unlit)
20 Dec - 03:45:12 10° SSW 03:49:07 15° S 03:52:58 10° SE visible
20 Dec - 05:38:25 10° SW 05:41:17 13° SSW 05:44:06 10° S visible
21 Dec - 02:44:37 10° SSW 02:48:22 14° S 02:52:03 10° SE visible
21 Dec - 04:36:50 10° SW 04:40:35 14° S 04:44:15 10° SSE visible
22 Dec - 01:44:31 10° S 01:47:36 13° SSE 01:50:40 10° SE night (unlit)
22 Dec - 03:35:40 10° SW 03:39:50 15° S 03:43:55 10° SSE visible
22 Dec - 05:30:17 10° SSW 05:31:58 11° SSW 05:33:38 10° S visible
23 Dec - 00:45:31 10° S 00:46:51 10° SSE 00:48:12 10° SSE night (unlit)
23 Dec - 02:34:49 10° SSW 02:39:04 16° S 02:43:14 10° SE visible
23 Dec - 04:27:56 10° SW 04:31:17 13° SSW 04:34:33 10° SSE visible
24 Dec - 01:34:18 10° SSW 01:38:16 15° S 01:42:12 10° SE night (unlit)
24 Dec - 03:26:28 10° SW 03:30:32 15° S 03:34:32 10° SSE visible
25 Dec - 00:34:15 10° S 00:37:29 13° SSE 00:40:44 10° SE night (unlit)
25 Dec - 02:25:23 10° SW 02:29:45 16° S 02:34:05 10° SSE visible
25 Dec - 04:19:41 10° SW 04:21:56 11° SSW 04:24:10 10° S visible
25 Dec - 23:35:19 10° S 23:36:45 11° SSE 23:38:12 10° SSE night (unlit)
